Flag for U.S.A. Weather past 2 weeks in Augusta, Maine, U.S.A.

Now
67 °F

Fog.


Feels Like: 67 °F
Forecast: 64 / 80 °F
Wind: No wind

Location: Augusta State Airport

Current Time: Jul 14, 2014 at 7:18:36 AM

Latest Report: Jul 14, 2014 at 6:53 AM


Visibility: 1 mi

Pressure: 29.86 "Hg

Humidity: 97%

Dew point: 66 °F

Location of AugustaLocation

Historic Weather in Augusta — Graph

°F

Augusta temperature yesterday

Maximum temperature yesterday: 79 °F (at 11:53 AM)
Minimum temperature yesterday: 62 °F (at 2:53 AM)
Average temperature yesterday: 69 °F

Past Weeks' High & Low Weather Summary

 TemperatureHumidityPressure
High87 °F (Jul 2, 12:53 PM)100% (Jul 3, 4:53 AM)30.24 "Hg (Jul 3, 4:53 AM)
Low55 °F (Jul 11, 3:53 AM)32% (Jun 29, 1:53 PM)29.61 "Hg (Jul 9, 3:53 AM)
Average72 °F73%29.92 "Hg
* Reported Jun 29 6:53 AM — Jul 14 6:03 AM, Augusta, Weather by CustomWeather, © 2014

Note: Actual official high and low records may vary slightly from our data, if they occured in-between our weather recording intervals... More about our weather records

Advertising

Augusta weather history for previous 24 hours

 ConditionsComfort  
Time TempWeatherWind HumidityBarometerVisibility
6:03 AM
Jul 14
66 °FFog.3 mph96%29.85 "Hg1 mi
4:53 AM65 °FFog.5 mph100%29.83 "Hg5 mi
3:53 AM65 °FFog.5 mph97%29.81 "Hg6 mi
2:53 AM65 °FMostly cloudy.7 mph97%29.81 "Hg8 mi
1:53 AM66 °FMostly cloudy.9 mph93%29.82 "Hg8 mi
12:53 AM66 °FLow clouds.8 mph93%29.84 "Hg9 mi
11:53 PM
Jul 13
65 °FPassing clouds.8 mph97%29.85 "Hg10 mi
10:53 PM65 °FLight rain. Passing clouds.9 mph94%29.86 "Hg7 mi
9:53 PM65 °FLight rain. Passing clouds.12 mph91%29.88 "Hg10 mi
8:53 PM65 °FLight rain. Partly sunny.9 mph91%29.88 "Hg9 mi
7:53 PM66 °FLight rain. Broken clouds.12 mph87%29.89 "Hg8 mi
6:53 PM67 °FRain. More clouds than sun.10 mph81%29.88 "Hg4 mi
5:53 PM73 °FLight rain. Sunny.13 mph57%29.88 "Hg10 mi
4:53 PM74 °FPartly sunny.9 mph60%29.89 "Hg10 mi
3:53 PM77 °FScattered clouds.7 mph58%29.91 "Hg10 mi
2:53 PM77 °FPassing clouds.8 mph60%29.93 "Hg10 mi
1:53 PM77 °FPassing clouds.12 mph66%29.94 "Hg10 mi
12:53 PM79 °FSunny.10 mph62%29.95 "Hg10 mi
11:53 AM79 °FSunny.9 mph62%29.96 "Hg10 mi
10:53 AM75 °FSunny.10 mph66%29.98 "Hg10 mi
9:53 AM73 °FSunny.8 mph74%30.01 "Hg10 mi
8:53 AM70 °FPartly sunny.5 mph76%30.03 "Hg10 mi
7:53 AM66 °FPartly sunny.6 mph90%30.03 "Hg10 mi
Weather by CustomWeather, © 2014

See weather overviewHow to use our weather pages